Bluefield, WV

2:55 AM EDT on October 15, 2019 (GMT -0400)
Mercer County

Weather History for KBLF - August, 2019

Change the Weather History Date:

Tuesday, August 20, 2019

  Actual Average Record
Temperature  
Mean Temperature 76 °F 72 °F  
Max Temperature 87 °F 81 °F 92 °F (1914)
Min Temperature 66 °F 64 °F 46 °F (1953)
Degree Days  
Heating Degree Days 0 0  
Month to date heating degree days 0 0  
Since 1 June heating degree days 52 24  
Since 1 July heating degree days 5 2  
Cooling Degree Days 12 7  
Month to date cooling degree days 147 157  
Year to date cooling degree days 502 662  
Since 1 June cooling degree days 423 571  
Growing Degree Days 26 (Base 50)    
Moisture  
Dew Point 62 °F    
Average Humidity 66    
Maximum Humidity 90    
Minimum Humidity 38    
Precipitation  
Precipitation 0.72 in 0.10 in 0.88 in (1986)
Month to date precipitation 1.33 2.20  
Year to date precipitation 26.66 27.33  
Snow  
Snow 0.00 in - - ()
Month to date snowfall 0.0  
Since 1 June snowfall 0.0  
Since 1 July snowfall 0.0  
Snow Depth 0.00 in    
Sea Level Pressure  
Sea Level Pressure 30.12 in    
Wind  
Wind Speed 4 mph ()    
Max Wind Speed 20 mph    
Max Gust Speed 25 mph    
Visibility 8.7 miles    
Events Rain , Thunderstorm    
T = Trace of Precipitation, MM = Missing Value Source: Averaged Metar Reports

Daily Weather History Graph

Daily Weather History Graph

Search for Another Location

Airport or City:

Astronomy

Aug. 20, 2019 Rise Set
Actual Time 6:45 AM EDT 8:10 PM EDT
Civil Twilight 6:17 AM EDT 8:38 PM EDT
Nautical Twilight 5:44 AM EDT 9:10 PM EDT
Astronomical Twilight 5:10 AM EDT 9:45 PM EDT
Moon 11:04 PM EDT (8/20) 11:16 AM EDT (8/20)
Length of Visible Light 14h 20m
Length of Day
13h 25m
Waning Gibbous, 78% of the Moon is Illuminated
Aug 20
Waning Gibbous
Aug 23
Last Quarter
Aug 30
New
Sep 5
First Quarter
Sep 14
Full

Hourly Weather History & Observations

Time (EDT) Temp. Heat Index Dew Point Humidity Pressure Visibility Wind Dir Wind Speed Gust Speed Precip Events Conditions
12:52 AM 73.0 °F - 63.0 °F 71% 30.09 in 10.0 mi West 3.5 mph - N/A   Clear
1:52 AM 70.0 °F - 62.1 °F 76% 30.09 in 10.0 mi Calm Calm - N/A   Clear
2:52 AM 68.0 °F - 62.1 °F 81% 30.09 in 10.0 mi Calm Calm - N/A   Clear
3:52 AM 70.0 °F - 62.1 °F 76% 30.09 in 10.0 mi Calm Calm - N/A   Scattered Clouds
4:52 AM 69.1 °F - 62.1 °F 78% 30.09 in 10.0 mi Calm Calm - N/A   Clear
5:52 AM 68.0 °F - 62.1 °F 81% 30.10 in 10.0 mi Calm Calm - N/A   Clear
6:52 AM 66.9 °F - 62.1 °F 84% 30.12 in 10.0 mi Calm Calm - N/A   Clear
7:52 AM 69.1 °F - 64.0 °F 84% 30.12 in 10.0 mi Calm Calm - N/A   Clear
8:52 AM 75.0 °F - 63.0 °F 66% 30.13 in 10.0 mi SW 4.6 mph - N/A   Clear
9:52 AM 77.0 °F - 62.1 °F 60% 30.13 in 10.0 mi West 6.9 mph - N/A   Clear
10:52 AM 81.0 °F 82.5 °F 64.0 °F 56% 30.12 in 10.0 mi WSW 4.6 mph - N/A   Clear
11:52 AM 82.0 °F 83.0 °F 62.1 °F 51% 30.12 in 10.0 mi Variable 5.8 mph - N/A   Scattered Clouds
12:52 PM 84.9 °F 85.0 °F 61.0 °F 44% 30.10 in 10.0 mi Variable 5.8 mph - N/A   Partly Cloudy
1:17 PM 84.0 °F 83.8 °F 59.0 °F 43% 30.22 in 10.0 mi Calm Calm - N/A Thunderstorm Mostly Cloudy
1:42 PM 84.0 °F 84.5 °F 62.1 °F 47% 30.21 in 10.0 mi South 9.2 mph - N/A   Mostly Cloudy
1:52 PM 86.0 °F 86.8 °F 63.0 °F 46% 30.08 in 10.0 mi SSW 8.1 mph - N/A   Partly Cloudy
2:20 PM 87.1 °F 86.5 °F 59.0 °F 39% 30.20 in 10.0 mi South 8.1 mph - N/A   Clear
2:28 PM 86.0 °F 85.0 °F 57.9 °F 38% 30.20 in 10.0 mi Variable 4.6 mph - N/A Thunderstorm Thunderstorm
2:52 PM 82.0 °F 82.4 °F 60.1 °F 47% 30.08 in 10.0 mi Variable 5.8 mph - N/A Thunderstorm Mostly Cloudy
3:04 PM 81.0 °F 81.7 °F 61.0 °F 50% 30.19 in 10.0 mi NE 9.2 mph - N/A   Overcast
3:52 PM 82.0 °F 83.1 °F 63.0 °F 52% 30.05 in 10.0 mi NNE 4.6 mph - N/A   Partly Cloudy
4:11 PM 80.1 °F 81.2 °F 62.1 °F 54% 30.18 in 10.0 mi SE 8.1 mph - N/A Thunderstorm Scattered Clouds
4:27 PM 77.0 °F - 62.1 °F 60% 30.19 in 10.0 mi South 8.1 mph 20.7 mph N/A Thunderstorm Thunderstorm
4:30 PM 73.9 °F - 64.0 °F 71% 30.20 in 1.8 mi SW 13.8 mph 20.7 mph 0.08 in Rain , Thunderstorm Light Thunderstorms and Rain
4:37 PM 71.1 °F - 63.0 °F 75% 30.19 in 0.8 mi West 18.4 mph 24.2 mph 0.20 in Rain , Thunderstorm Heavy Thunderstorms and Rain
4:43 PM 70.0 °F - 60.1 °F 71% 30.19 in 1.0 mi WNW 19.6 mph 25.3 mph 0.32 in Rain , Thunderstorm Heavy Thunderstorms and Rain
4:52 PM 69.1 °F - 62.1 °F 78% 30.09 in 0.8 mi NW 5.8 mph 19.6 mph 0.53 in Rain , Thunderstorm Heavy Thunderstorms and Rain
5:05 PM 71.1 °F - 64.9 °F 81% 30.16 in 1.2 mi SSE 4.6 mph - 0.18 in Rain , Thunderstorm Thunderstorms and Rain
5:16 PM 70.0 °F - 66.9 °F 90% 30.15 in 8.0 mi SE 4.6 mph - 0.19 in Rain Light Rain
5:52 PM 73.0 °F - 66.9 °F 81% 30.06 in 10.0 mi Calm Calm - 0.19 in   Partly Cloudy
6:52 PM 75.9 °F - 64.9 °F 69% 30.06 in 10.0 mi SSW 4.6 mph - N/A Thunderstorm Partly Cloudy
7:08 PM 75.9 °F - 64.0 °F 67% 30.16 in 10.0 mi Variable 4.6 mph - N/A   Clear
7:52 PM 75.0 °F - 64.0 °F 69% 30.06 in 10.0 mi SSW 8.1 mph - N/A   Overcast
8:52 PM 72.0 °F - 62.1 °F 71% 30.06 in 10.0 mi SW 4.6 mph - N/A   Mostly Cloudy
9:52 PM 71.1 °F - 62.1 °F 73% 30.06 in 10.0 mi SSW 4.6 mph - N/A   Clear
10:52 PM 72.0 °F - 62.1 °F 71% 30.04 in 10.0 mi SSW 5.8 mph - 0.00 in   Clear
11:52 PM 69.1 °F - 63.0 °F 81% 30.05 in 10.0 mi Calm Calm - N/A   Clear